Location: *
(21.1000°N, 82.1000°E)
Time: 14:45:56
(UTC+00:00)

Daily predictions for brighter satellites

Satellite Brightness Start Highest point End
(mag) Time Altitude Azimuth Time Altitude Azimuth Time Altitude Azimuth
OAO 2 Rocket 4.1 13:06:42 10° WNW 13:11:44 50° SW 13:16:39 10° SE
Cosmos 1939 Rocket 2.9 13:09:20 10° SSE 13:13:13 56° ENE 13:17:04 10° N
USA 81 4.0 13:08:45 10° N 13:14:01 73° E 13:19:16 10° S
Hubble Space Telescope 1.2 13:10:10 10° SW 13:14:07 46° SSE 13:18:04 10° E
Orbus 7S? 4.0 13:12:30 10° N 13:14:26 20° ENE 13:16:46 10° ESE
Cosmos 1818 3.5 13:10:40 10° SSW 13:16:01 72° ESE 13:21:26 10° NNE
STARLINK-1072 4.5 13:13:49 10° NNW 13:17:35 33° NE 13:21:17 10° ESE
SL-08 ROCKET BODY 4.4 13:12:06 10° N 13:18:06 80° E 13:23:59 10° S
Meteor 2-15 4.4 13:13:41 10° S 13:19:42 72° E 13:25:43 10° N
Cosmos 1943 3.2 13:15:15 10° S 13:20:48 65° ESE 13:26:24 10° NNE
Cosmos 1626 2.5 13:17:21 10° NNE 13:20:52 41° E 13:24:22 10° SSE
Cosmos 1674 4.2 13:17:36 10° NNW 13:21:05 40° W 13:24:34 10° SSW
STARLINK-1096 4.3 13:18:43 10° NNW 13:22:35 38° NE 13:26:06 12° ESE
CSL-04 Rocket 3.6 13:19:28 10° SSE 13:24:42 62° ENE 13:29:54 10° N
STARLINK-1079 4.1 13:23:34 10° NNW 13:27:31 43° NE 13:30:50 14° ESE
Meteor 1-24 Rocket 3.6 13:22:14 10° N 13:27:35 90° ENE 13:32:52 10° S
Cosmos 1953 2.6 13:24:06 10° SSE 13:27:51 42° E 13:31:35 10° NNE
CZ-2C R/B 4.4 13:26:18 12° ESE 13:28:53 17° ENE 13:32:02 10° NNE
ATLAS 3B CENTAUR R/B 3.3 13:19:44 10° WNW 13:29:07 45° SW 13:33:23 10° SE
Okean 1-7 Rocket 3.9 13:25:02 10° N 13:29:23 68° W 13:33:44 10° S
STARLINK-1116 3.9 13:28:30 10° NNW 13:32:31 49° NE 13:35:37 16° ESE
Cosmos 1302 Rocket 4.2 13:27:35 10° N 13:32:43 51° ENE 13:37:50 10° SSE
STARLINK-52 3.1 13:30:40 10° SSW 13:33:45 48° SE 13:36:51 10° NE
Cosmos 1470 4.1 13:35:22 10° SSW 13:39:02 43° W 13:42:45 10° N
H-2A R/B 3.0 13:36:03 13° SE 13:39:48 27° ENE 13:44:09 10° NNE
STARLINK-1094 3.6 13:38:21 10° NNW 13:42:27 66° NE 13:45:11 20° SE
FALCON 9 R/B 4.2 13:35:52 10° WNW 13:43:00 72° NNE 14:13:43 21° E
GOES 2 Rocket 2.9 13:40:54 10° WNW 13:45:04 79° SSW 13:47:40 23° ESE
STARLINK-1117 3.5 13:43:19 10° NW 13:47:27 76° NE 13:50:00 22° SE
GPS 2-04 Rocket1 3.8 13:48:51 10° SSW 13:52:13 26° SE 13:52:32 25° SE
STARLINK-1078 3.5 13:48:16 10° NW 13:52:25 87° ENE 13:54:46 25° SE
ARGOS 3.9 13:50:39 23° ESE 13:52:55 31° ENE 13:57:34 10° NNE
Delta 198 4.3 13:50:46 10° WSW 13:56:33 87° NNW 14:00:49 23° ENE
STARLINK-1108 3.6 13:53:16 10° NW 13:57:24 82° SW 13:59:34 27° SSE
CZ-2C R/B 3.4 13:56:18 10° NE 14:00:00 27° E 14:00:00 27° E
Meteor 2-10 4.0 13:55:30 10° S 14:00:45 89° E 14:06:15 10° N
STARLINK-1071 3.8 13:58:14 10° NW 14:02:20 71° SW 14:04:20 29° SSE
OAO 1 4.5 13:57:42 10° WSW 14:03:14 90° NW 14:06:43 23° ENE
Centaur D-1AR AC-39 3.7 14:01:53 10° WSW 14:05:30 18° SSW 14:07:32 12° S
Aureole 2 Rocket 3.8 14:04:12 10° N 14:05:58 24° NNE 14:05:58 24° NNE
STARLINK-1110 4.0 14:03:14 10° NW 14:07:18 61° SW 14:09:08 30° SSE
USA 234 3.4 14:02:57 10° NNE 14:09:27 74° NW 14:15:57 10° SW
Nadezhda 1 Rocket 4.1 14:03:46 10° SSE 14:09:56 53° E 14:16:07 10° NNE
MOS 1 4.4 14:08:21 30° SE 14:10:47 50° ENE 14:16:13 10° N
Cosmos 1726 2.7 14:08:22 10° SSW 14:12:02 56° W 14:15:42 10° N
STARLINK-1124 4.2 14:08:16 10° NW 14:12:17 53° SW 14:13:56 31° S
GPS 2-15 Rocket1 3.4 14:07:36 10° W 14:12:27 57° S 14:13:40 43° SE
Ariane Rocket 2.8 14:10:18 19° SSE 14:13:57 79° ENE 14:19:00 10° N
SJ-6B 3.9 14:15:10 32° NE 14:15:10 32° NE 14:17:53 10° N
Meteor 1-16 Rocket 4.1 14:10:01 10° S 14:15:19 79° W 14:20:44 10° N
STARLINK-1122 4.5 14:13:17 10° NW 14:17:14 45° SW 14:18:42 31° S
DMSP B5D2-2 4.0 14:14:39 10° NNE 14:19:47 59° E 14:24:56 10° S
GEOS 3 Rocket 3.5 14:19:49 47° SE 14:21:15 72° ENE 14:26:22 10° NNW
Cosmos 1190 Rocket 3.9 14:16:58 10° S 14:22:14 71° ESE 14:27:31 10° NNE
Cosmos 1140 Rocket 3.4 14:19:18 10° S 14:24:25 62° ESE 14:29:32 10° NNE
IRIDIUM 104 4.2 14:19:58 10° N 14:25:11 88° E 14:28:26 24° S
Meteor 1-21 Rocket 4.0 14:19:46 10° N 14:25:19 84° E 14:28:08 30° S
ATLAS 5 CENTAUR R/B 2.1 14:22:30 10° SW 14:26:24 50° WNW 14:30:26 10° NNE
USA 186 3.3 14:31:48 35° NNW 14:31:48 35° NNW 14:33:53 10° NNW
MOS 1 Rocket 3.5 14:27:01 10° NNE 14:32:26 69° E 14:33:21 58° SSE
IRIDIUM 114 4.5 14:29:07 10° N 14:34:18 72° W 14:37:35 23° S
Cosmos 1726 Rocket 3.7 14:34:21 44° SSW 14:35:37 69° W 14:40:00 10° N
SPOT 3 Rocket 4.4 14:43:44 39° NNE 14:43:44 39° NNE 14:47:09 10° N
Cosmos 2074 Rocket 3.9 14:40:03 10° N 14:46:21 85° W 14:48:14 48° S
Cosmos 1943 Rocket 2.6 14:47:02 10° NNW 14:52:29 57° WSW 14:53:28 50° SW
Cosmos 2369 Rocket 2.2 14:48:01 10° NNW 14:53:23 78° WNW 14:53:23 78° WNW
Hubble Space Telescope 2.5 14:51:18 10° W 14:53:43 31° WNW 14:53:43 31° WNW
Yuri Rocket 4.3 14:50:02 10° WSW 14:59:45 73° SSE 15:00:01 72° SE
H-2A R/B 4.2 15:16:40 17° SW 15:19:02 23° W 15:23:05 10° NW
Centaur AC-42 4.0 15:18:53 10° W 15:20:10 20° W 15:20:10 20° W
ATLAS 2AS CENTAUR R/B 4.4 15:52:15 10° NNW 15:55:05 25° NNW 15:55:05 25° NNW
Cosmos 2237 Rocket 4.5 21:24:52 10° N 21:35:26 - SE 21:26:25 17° NNE
Centaur AC-119 4.5 22:00:25 60° SSW 22:00:38 60° SSW 22:26:37 10° ESE
ATLAS 3B R/B 2.6 22:02:08 78° NNE 22:02:08 78° NNE 22:08:16 10° NNE
Nadezhda 4 Rocket 4.1 22:10:56 57° SSE 22:12:13 76° E 22:18:32 10° N
CZ-4B R/B 4.4 22:16:06 12° NNE 22:16:06 12° NNE 22:16:30 10° NNE
PAYLOAD A 4.4 22:08:51 10° NNE 22:14:06 61° E 22:14:32 59° SE
Cosmos 1867 3.8 22:14:34 64° ESE 22:14:36 64° ESE 22:19:59 10° NNE
Gbstr 26 Del rocket 4.0 22:15:56 65° S 22:16:46 73° SE 22:22:35 10° NE
CZ-2C R/B 2.9 22:13:18 10° NNE 22:17:43 50° E 22:18:02 49° ESE
Meteor 1-13 Rocket 4.3 22:18:29 54° SSE 22:19:48 75° E 22:25:30 10° N
Cosmos 2279 Rocket 3.8 22:19:42 10° N 22:25:54 70° W 22:26:24 67° SW
Okean 2 Rocket 3.7 22:24:36 10° N 22:29:02 56° E 22:33:27 10° SSE
GPS 2-12 Rocket1 3.8 22:34:48 39° SSE 22:34:48 39° SSE 22:38:01 10° ESE
Cosmos 1378 Rocket 4.4 22:31:57 25° SSE 22:34:08 48° E 22:38:18 10° NNE
Meteor 1-23 Rocket 4.4 22:43:22 10° S 22:48:59 71° E 22:54:41 10° NNE
SL-16 R/B 2.8 22:43:27 10° N 22:49:01 58° ENE 22:54:34 10° SSE
Cosmos 1048 Rocket 3.9 22:44:15 10° NNW 22:49:33 68° WSW 22:54:52 10° S
Yuri Rocket 4.3 22:50:52 24° S 22:50:52 24° S 22:53:29 10° SSE
CZ-4B R/B 4.4 22:46:15 10° NNE 22:50:26 41° E 22:54:41 10° S
Intelsat 5-3 Rocket 3.7 22:54:40 15° SE 22:54:40 15° SE 22:55:58 10° ESE
ASTRO E2 3.2 22:54:41 37° NW 22:55:57 55° NNE 22:59:50 10° E
CENTAUR R/B 4.2 22:57:51 13° NW 22:57:51 13° NW 23:00:35 10° NNW
Timation 1 Rocket 4.3 22:56:28 28° SW 22:59:36 63° WNW 23:05:33 10° N
Cosmos 1356 3.3 22:59:17 10° N 23:02:42 88° E 23:06:07 10° S
Spot 2 4.4 23:00:48 10° N 23:05:55 73° WNW 23:10:54 10° SSW
Shenzhou-11 Module 2.9 23:06:36 31° N 23:06:36 31° N 23:08:24 10° NNE
Cosmos 1484 Rocket 3.1 23:02:32 10° NNE 23:06:16 61° E 23:09:55 10° S
GPS 2-14 Rocket1 3.3 23:06:38 32° SSW 23:07:55 44° SSE 23:11:45 10° E
Palapa 6 Rocket 2.8 23:07:28 37° W 23:08:56 73° N 23:13:25 10° E
Skynet4D Del rocket 4.3 23:06:06 21° WNW 23:11:08 89° NNE 23:19:06 10° ESE
Cosmos 1627 Rocket 4.4 23:05:04 10° S 23:11:13 72° W 23:17:20 10° N
Gblst 52 Del rocket 4.1 23:05:53 10° NW 23:11:36 62° SW 23:16:59 10° SSE
Cosmos 2195 Rocket 4.4 23:06:09 10° SSW 23:12:11 62° W 23:18:17 10° N
Cosmos 2237 Rocket 4.2 23:17:37 11° SSW 23:17:37 11° SSW 23:17:50 10° SSW
Cosmos 1975 Rocket 4.2 23:10:34 10° SSE 23:14:40 45° E 23:18:49 10° NNE
Cosmos 2263 Rocket 2.4 23:12:22 19° SW 23:16:14 50° WNW 23:21:44 10° N
Okean 1 Rocket 3.6 23:16:44 10° N 23:21:04 62° E 23:25:25 10° SSE
STARLINK-52 3.1 23:17:54 10° NW 23:21:06 75° NE 23:24:17 10° SE
Cosmos 1437 Rocket 2.7 23:20:43 10° SSW 23:24:46 72° W 23:28:51 10° N
Cosmos 1378 3.0 23:23:16 10° S 23:26:57 87° W 23:30:40 10° N
TRAILBLAZER 4.5 23:24:23 10° NNW 23:28:53 79° WSW 23:33:21 10° SSE
Lacrosse 4 Rocket 4.4 23:26:40 10° SE 23:29:00 14° ESE 23:31:23 10° ENE
H-2A R/B 2.4 23:27:34 10° N 23:31:25 54° WNW 23:35:11 10° SSW
Cosmos 1689 Rocket 3.3 23:32:47 10° SSW 23:35:10 21° W 23:37:32 10° NW
SWIFT 2.3 23:36:12 15° W 23:39:41 81° S 23:43:55 10° E
STARLINK-1168 4.4 23:43:49 10° SSW 23:47:02 40° SE 23:50:16 10° NE
STARLINK-1164 4.3 23:45:02 10° SSW 23:48:16 42° SE 23:51:31 10° NE
Okean 2 3.4 23:44:51 10° SSW 23:48:55 57° W 23:52:58 10° N
STARLINK-1182 4.3 23:46:16 10° SSW 23:49:32 43° SE 23:52:47 10° NE
SJ-12 4.0 23:45:42 10° N 23:49:40 53° WNW 23:53:37 10° SSW
Meteor 1-31 Rocket 4.3 23:48:30 10° NNW 23:51:12 18° WNW 23:53:53 10° WSW
Lacrosse 5 2.8 23:46:24 10° SSW 23:51:17 50° ESE 23:56:10 10° NE
PSLV R/B 4.4 23:48:05 10° S 23:52:01 39° W 23:55:57 10° NNW
GPS 2-04 Rocket1 4.4 23:49:57 10° WSW 23:52:18 15° SW 23:54:35 10° S
STARLINK-1172 4.1 23:49:02 10° SSW 23:52:22 48° SE 23:55:43 10° NE
ATLAS 3B R/B 4.4 23:51:28 10° WNW 23:52:51 11° NW 23:54:14 10° NW
STARLINK-1145 4.0 23:50:23 10° SSW 23:53:43 50° SE 23:57:03 10° NE
STARLINK-1161 3.9 23:51:41 10° SSW 23:55:02 53° SE 23:58:24 10° NE
STARLINK-1179 2.9 23:52:13 10° SW 23:55:19 80° SE 23:58:24 10° NE
STARLINK-1176 2.9 23:52:40 10° SW 23:55:44 81° SE 23:58:50 10° NE
STARLINK-1160 3.8 23:53:00 10° SSW 23:56:23 55° SE 23:59:45 10° NE
